Home   Weather   Qaanaaq   Past weeks
Flag for Greenland

Past Weather in Qaanaaq, Greenland — Yesterday and Last 2 Weeks

Now
5 °F

Passing clouds.


Feels Like: -9 °F
Forecast: 10 / 5 °F
Wind: 9 mph from East

Location: Thule A. B.

Current Time: Oct 22, 2019 at 9:58:15 am

Latest Report: Oct 22, 2019 at 8:56 am


Visibility: N/A

Pressure: 30.23 "Hg

Humidity: 72%

Dew Point: -2 °F

Location of QaanaaqLocation

Past Weather in Qaanaaq — Graph

°F

Qaanaaq Temperature Yesterday

Maximum temperature yesterday: 7 °F (at 1:56 pm)
Minimum temperature yesterday: 1 °F (at 1:56 am)
Average temperature yesterday: 3 °F

High & Low Weather Summary for the Past Weeks

 TemperatureHumidityPressure
High36 °F (Oct 10, 7:01 am)100% (Oct 7, 7:56 am)30.38 "Hg (Oct 7, 7:56 am)
Low-8 °F (Oct 20, 8:56 am)52% (Oct 10, 6:56 pm)29.44 "Hg (Oct 11, 10:56 am)
Average22 °F90%29.83 "Hg
* Reported Oct 7 7:56 am — Oct 22 7:56 am, Qaanaaq. Weather by CustomWeather, © 2019

Note: Actual official high and low records may vary slightly from our data, if they occured in-between our weather recording intervals... More about our weather records

Advertising

Qaanaaq Weather History for the Previous 24 Hours

Scroll right to see more
 ConditionsComfort  
Time TempWeatherWind HumidityBarometerVisibility
7:56 am
Tue, Oct 22
9 °FClear.No wind61%30.24 "HgN/A
6:56 am1 °FClear.12 mph71%30.25 "HgN/A
5:56 am1 °FClear.8 mph71%30.26 "HgN/A
3:56 am9 °FClear.8 mph66%30.28 "HgN/A
2:56 am0 °FClear.8 mph71%30.29 "HgN/A
1:56 am0 °FClear.13 mph78%30.31 "HgN/A
12:56 am5 °FClear.12 mph66%30.32 "HgN/A
11:56 pm
Mon, Oct 21
3 °FClear.15 mph72%30.33 "HgN/A
10:56 pm2 °FClear.13 mph70%30.34 "HgN/A
9:56 pm1 °FClear.10 mph78%30.34 "HgN/A
8:56 pm1 °FClear.15 mph78%30.35 "HgN/A
7:56 pm3 °FClear.10 mph72%30.36 "HgN/A
6:56 pm3 °FClear.12 mph72%30.37 "HgN/A
5:56 pm3 °FSunny.7 mph72%30.38 "HgN/A
4:56 pm7 °FSunny.8 mph72%30.37 "HgN/A
3:56 pm1 °FSunny.9 mph78%30.37 "HgN/A
2:56 pm5 °FSunny.9 mph78%30.36 "HgN/A
1:56 pm7 °FSunny.8 mph72%30.37 "HgN/A
12:56 pm3 °FSunny.6 mph78%30.36 "HgN/A
11:56 am5 °FClear.10 mph78%30.36 "HgN/A
9:56 am1 °FClear.10 mph78%30.34 "HgN/A
Weather by CustomWeather, © 2019

See weather overview